Pratica di Mare, Italy

5:26 AM CEST on August 21, 2017 (GMT +0200)
Pratica Di Mare Mil

Weather History for LIRE - November, 2012

Change the Weather History Date:

Thursday, November 29, 2012

  Actual Average Record
Temperature  
Mean Temperature 54 °F -  
Max Temperature 58 °F 57 °F 68 °F (2014)
Min Temperature 51 °F 42 °F 38 °F (2013)
Degree Days  
Heating Degree Days 10    
Growing Degree Days 4 (Base 50)    
Moisture  
Dew Point 48 °F    
Average Humidity 75    
Maximum Humidity 88    
Minimum Humidity 57    
Precipitation  
Precipitation 0.39 in 0.14 in - ()
Sea Level Pressure  
Sea Level Pressure 29.29 in    
Wind  
Wind Speed 20 mph ()    
Max Wind Speed 30 mph    
Max Gust Speed 45 mph    
Visibility 4.8 miles    
Events Rain , Hail , Thunderstorm    
Averages and records for this station are not official NWS values.
T = Trace of Precipitation, MM = Missing Value Source: Averaged Metar Reports

Daily Weather History Graph

Daily Weather History Graph

Search for Another Location

Airport or City:

Trip Planner

Search our weather history database for the weather conditions in past years. The results will help you decide how hot, cold, wet, or windy it might be!

Date:

Astronomy

Nov. 29, 2012 Rise Set
Actual Time 7:15 AM CET 4:41 PM CET
Civil Twilight 6:44 AM CET 5:12 PM CET
Nautical Twilight 6:10 AM CET 5:46 PM CET
Astronomical Twilight 5:37 AM CET 6:20 PM CET
Moon 5:30 PM CET (11/29) 7:49 AM CET (11/29)
Length of Visible Light 10h 27m
Length of Day
9h 25m
Full, 99% of the Moon is Illuminated
Nov 29
Full
Dec 6
Last Quarter
Dec 13
New
Dec 20
First Quarter
Dec 28
Full

Hourly Weather History & Observations

Time (CET) Temp. Dew Point Humidity Pressure Visibility Wind Dir Wind Speed Gust Speed Precip Events Conditions
12:55 AM 57.2 °F 48.2 °F 72% 29.33 in 6.2 mi South 26.5 mph - N/A   Scattered Clouds
1:00 AM 57 °F 47 °F 62% 29.34 in 6 mi South 26.5 mph - - Rain Light Rain
1:55 AM 57.2 °F 50.0 °F 77% 29.33 in 6.2 mi South 25.3 mph - N/A Rain Rain Showers
2:55 AM 55.4 °F 46.4 °F 72% 29.30 in 6.2 mi SSW 17.3 mph - N/A Rain Light Rain
3:55 AM 55.4 °F 50.0 °F 82% 29.30 in 6.2 mi SSW 20.7 mph - N/A Rain Light Rain
4:00 AM 56 °F 50 °F 74% 29.32 in 7 mi SSW 20.7 mph - - Rain Light Rain
4:55 AM 55.4 °F 50.0 °F 82% 29.30 in 6.2 mi South 20.7 mph - N/A Rain Light Rain
5:55 AM 55.4 °F 48.2 °F 77% 29.30 in 6.2 mi SSW 18.4 mph - N/A   Scattered Clouds
6:55 AM 57.2 °F 46.4 °F 67% 29.30 in 6.2 mi South 18.4 mph - N/A   Scattered Clouds
7:00 AM 56 °F 46 °F 59% 29.31 in 7 mi South 18.4 mph - -   Partly Cloudy
7:55 AM 57.2 °F 42.8 °F 59% 29.27 in 6.2 mi SSW 19.6 mph - N/A   Partly Cloudy
8:55 AM 57.2 °F 44.6 °F 63% 29.27 in 6.2 mi South 20.7 mph - N/A   Mostly Cloudy
9:55 AM 51.8 °F 42.8 °F 71% 29.27 in 5.0 mi SW 1.2 mph 33.4 mph N/A Rain Light Rain Showers
10:00 AM 52 °F 43 °F 61% 29.29 in 2 mi SW 1.2 mph - - Hail Light Small Hail Showers
10:05 AM 53.6 °F 46.4 °F 77% 29.30 in 1.9 mi SW 24.2 mph 36.8 mph N/A Rain , Thunderstorm Light Thunderstorms and Rain
10:15 AM 53.6 °F 50.0 °F 88% 29.30 in 4.3 mi SSW 20.7 mph 34.5 mph N/A Rain Light Rain
10:27 AM 51.8 °F 48.2 °F 88% 29.30 in 4.3 mi WSW 19.6 mph - N/A Rain , Thunderstorm Light Thunderstorms and Rain
10:55 AM 53.6 °F 48.2 °F 82% 29.30 in 4.3 mi SW 12.7 mph - N/A Rain Light Rain
11:40 AM 55.4 °F 48.2 °F 77% 29.30 in 3.7 mi SW 29.9 mph 43.7 mph N/A Rain Light Rain
11:55 AM 55.4 °F 46.4 °F 72% 29.27 in 3.7 mi SSW 28.8 mph 44.9 mph N/A Rain Light Rain
12:55 PM 57.2 °F 46.4 °F 67% 29.27 in 4.3 mi SSW 28.8 mph - N/A Rain Light Rain
1:00 PM 56 °F 47 °F 63% 29.28 in 4 mi SSW 28.8 mph - - Rain Light Rain
1:21 PM 57.2 °F 48.2 °F 72% 29.27 in 4.3 mi SSW 29.9 mph 43.7 mph N/A Rain Light Rain Showers
1:42 PM 57.2 °F 48.2 °F 72% 29.24 in 5.0 mi SSW 28.8 mph 41.4 mph N/A Rain Light Rain
1:55 PM 55.4 °F 50.0 °F 82% 29.24 in 4.3 mi SSW 28.8 mph 41.4 mph N/A Rain Light Rain
2:55 PM 57.2 °F 48.2 °F 72% 29.27 in 4.3 mi SW 29.9 mph 41.4 mph N/A Rain Light Rain
4:00 PM 58 °F 47 °F 57% 29.26 in 4 mi SW 26.5 mph - - Rain Light Rain
4:55 PM 57.2 °F 48.2 °F 72% 29.27 in 4.3 mi SW 27.6 mph - N/A Rain Light Rain
5:13 PM 55.4 °F 51.8 °F 88% 29.27 in 4.3 mi WSW 23.0 mph - N/A Rain Light Rain
5:55 PM 51.8 °F 48.2 °F 88% 29.27 in 4.3 mi West 18.4 mph - N/A Rain Light Rain
6:55 PM 55.4 °F 48.2 °F 77% 29.27 in 4.3 mi WSW 16.1 mph - N/A Rain Light Rain
7:00 PM 56 °F 48 °F 68% 29.29 in 4 mi WSW 16.1 mph - - Rain Light Rain
7:55 PM 55.4 °F 51.8 °F 88% 29.30 in 4.3 mi WSW 19.6 mph - N/A Rain Light Rain
8:55 PM 55.4 °F 51.8 °F 88% 29.33 in 4.3 mi SW 15.0 mph - N/A Rain Light Rain
9:55 PM 55.4 °F 50.0 °F 82% 29.33 in 4.3 mi SW 17.3 mph - N/A Rain , Thunderstorm Light Thunderstorms and Rain
10:00 PM 55 °F 51 °F 80% 29.34 in 4 mi SW 17.3 mph - - Thunderstorm Thunderstorm
10:55 PM 55.4 °F 51.8 °F 88% 29.33 in 4.3 mi SW 23.0 mph - N/A Rain Light Rain
11:55 PM 55.4 °F 51.8 °F 88% 29.36 in 5.0 mi SW 16.1 mph - N/A Rain Light Rain